| time (UTC) | temp F | wind direction | speed MPH | gust MPH | rain 1hr in | rain 24hr in | rain mn in | humidity % | barometer mb |
| 20260506175522 | 53 | 0 | 0.0 | 4.0 | 0.00 | 0.00 | 0.00 | 89 | 1020.1 |
| 20260506175022 | 53 | 203 | 0.0 | 4.0 | 0.00 | 0.00 | 0.00 | 90 | 1020.0 |
| 20260506174540 | 53 | 0 | 1.0 | 4.0 | 0.00 | 0.00 | 0.00 | 89 | 1020.0 |
| 20260506174023 | 53 | 122 | 1.0 | 4.0 | 0.00 | 0.00 | 0.00 | 89 | 1020.1 |
| 20260506173524 | 53 | 96 | 0.0 | 4.0 | 0.00 | 0.00 | 0.00 | 89 | 1020.1 |
| 20260506173053 | 53 | 0 | 0.0 | 6.0 | 0.00 | 0.00 | 0.00 | 88 | 1020.0 |
| 20260506172522 | 53 | 0 | 0.0 | 6.0 | 0.00 | 0.00 | 0.00 | 89 | 1019.8 |
| 20260506172021 | 53 | 105 | 0.0 | 6.0 | 0.00 | 0.00 | 0.00 | 88 | 1019.8 |
| 20260506171543 | 53 | 95 | 1.0 | 3.0 | 0.00 | 0.00 | 0.00 | 87 | 1019.8 |
| 20260506171026 | 54 | 0 | 0.0 | 4.0 | 0.00 | 0.00 | 0.00 | 89 | 1019.8 |
| 20260506170525 | 53 | 96 | 1.0 | 4.0 | 0.00 | 0.00 | 0.00 | 89 | 1019.6 |
| 20260506165521 | 53 | 117 | 0.0 | 6.0 | 0.00 | 0.00 | 0.00 | 90 | 1019.4 |
| 20260506165023 | 53 | 106 | 1.0 | 6.0 | 0.00 | 0.00 | 0.00 | 91 | 1019.4 |
| 20260506164539 | 52 | 101 | 1.0 | 4.0 | 0.00 | 0.00 | 0.00 | 91 | 1019.5 |
| 20260506164023 | 52 | 108 | 0.0 | 4.0 | 0.00 | 0.00 | 0.00 | 90 | 1019.5 |
| 20260506163522 | 52 | 100 | 0.0 | 4.0 | 0.00 | 0.00 | 0.00 | 91 | 1019.4 |
| 20260506163035 | 52 | 108 | 0.0 | 3.0 | 0.00 | 0.00 | 0.00 | 91 | 1019.4 |
| 20260506162523 | 52 | 0 | 0.0 | 3.0 | 0.00 | 0.00 | 0.00 | 91 | 1019.6 |
| 20260506162026 | 51 | 0 | 0.0 | 3.0 | 0.00 | 0.00 | 0.00 | 92 | 1019.5 |
| 20260506161539 | 52 | 115 | 0.0 | 3.0 | 0.00 | 0.00 | 0.00 | 91 | 1019.5 |
| 20260506161021 | 52 | 0 | 0.0 | 2.0 | 0.00 | 0.00 | 0.00 | 91 | 1019.7 |
| 20260506160525 | 52 | 206 | 0.0 | 3.0 | 0.00 | 0.00 | 0.00 | 92 | 1019.6 |
| 20260506160040 | 52 | 0 | 0.0 | 3.0 | 0.00 | 0.00 | 0.00 | 92 | 1019.6 |
| 20260506155525 | 52 | 107 | 1.0 | 2.0 | 0.00 | 0.00 | 0.00 | 92 | 1019.6 |
| 20260506155021 | 51 | 0 | 0.0 | 4.0 | 0.00 | 0.00 | 0.00 | 92 | 1019.5 |
| 20260506154544 | 51 | 0 | 0.0 | 4.0 | 0.00 | 0.00 | 0.00 | 93 | 1019.3 |
| 20260506154023 | 51 | 116 | 1.0 | 6.0 | 0.00 | 0.00 | 0.00 | 92 | 1019.4 |
| 20260506153522 | 51 | 104 | 2.0 | 6.0 | 0.00 | 0.00 | 0.00 | 92 | 1019.5 |
| 20260506153039 | 51 | 112 | 1.0 | 4.0 | 0.00 | 0.00 | 0.00 | 92 | 1019.7 |
| 20260506152522 | 51 | 107 | 0.0 | 3.0 | 0.00 | 0.00 | 0.00 | 92 | 1019.7 |
| 20260506152026 | 52 | 112 | 0.0 | 2.0 | 0.00 | 0.00 | 0.00 | 92 | 1019.7 |
| 20260506151537 | 52 | 0 | 0.0 | 0.0 | 0.00 | 0.00 | 0.00 | 92 | 1019.7 |
| 20260506151021 | 52 | 0 | 0.0 | 0.0 | 0.00 | 0.00 | 0.00 | 92 | 1019.8 |
| 20260506150521 | 52 | 0 | 0.0 | 0.0 | 0.00 | 0.00 | 0.00 | 92 | 1019.6 |
| 20260506150035 | 51 | 0 | 0.0 | 0.0 | 0.00 | 0.00 | 0.00 | 92 | 1019.6 |
| 20260506145524 | 51 | 0 | 0.0 | 0.0 | 0.00 | 0.00 | 0.00 | 93 | 1019.3 |
| 20260506145022 | 51 | 0 | 0.0 | 0.0 | 0.00 | 0.00 | 0.00 | 93 | 1019.3 |
| 20260506144555 | 51 | 0 | 0.0 | 4.0 | 0.00 | 0.00 | 0.00 | 93 | 1019.2 |
| 20260506144024 | 50 | 0 | 0.0 | 4.0 | 0.00 | 0.00 | 0.00 | 93 | 1019.3 |
| 20260506143523 | 50 | 273 | 1.0 | 4.0 | 0.00 | 0.00 | 0.00 | 93 | 1019.3 |
| 20260506143041 | 50 | 0 | 0.0 | 3.0 | 0.00 | 0.00 | 0.00 | 93 | 1019.3 |
| 20260506142521 | 51 | 101 | 0.0 | 3.0 | 0.00 | 0.00 | 0.00 | 93 | 1019.4 |
| 20260506142026 | 51 | 200 | 0.0 | 3.0 | 0.00 | 0.00 | 0.00 | 93 | 1019.6 |
| 20260506141539 | 51 | 195 | 1.0 | 3.0 | 0.00 | 0.00 | 0.00 | 93 | 1019.5 |
| 20260506141026 | 51 | 94 | 1.0 | 3.0 | 0.00 | 0.00 | 0.00 | 92 | 1019.4 |
| 20260506140522 | 51 | 0 | 0.0 | 0.0 | 0.00 | 0.00 | 0.00 | 93 | 1019.7 |
| 20260506140043 | 51 | 0 | 0.0 | 0.0 | 0.00 | 0.00 | 0.00 | 93 | 1019.5 |
| 20260506135521 | 51 | 0 | 0.0 | 0.0 | 0.00 | 0.00 | 0.00 | 93 | 1019.5 |
| 20260506135021 | 51 | 0 | 0.0 | 4.0 | 0.00 | 0.00 | 0.00 | 93 | 1019.3 |
| 20260506134549 | 50 | 0 | 0.0 | 4.0 | 0.00 | 0.00 | 0.00 | 93 | 1019.3 |
| 20260506134021 | 51 | 269 | 1.0 | 4.0 | 0.00 | 0.00 | 0.00 | 93 | 1019.1 |
| 20260506133526 | 51 | 0 | 0.0 | 4.0 | 0.00 | 0.00 | 0.00 | 93 | 1018.9 |
| 20260506133043 | 51 | 0 | 0.0 | 4.0 | 0.00 | 0.00 | 0.00 | 93 | 1019.0 |
| 20260506132523 | 51 | 170 | 0.0 | 2.0 | 0.00 | 0.00 | 0.00 | 93 | 1019.1 |
| 20260506132025 | 51 | 0 | 0.0 | 2.0 | 0.00 | 0.00 | 0.00 | 93 | 1019.1 |
| 20260506131538 | 51 | 0 | 0.0 | 1.0 | 0.00 | 0.00 | 0.00 | 93 | 1019.1 |
| 20260506131023 | 51 | 0 | 0.0 | 2.0 | 0.00 | 0.00 | 0.00 | 94 | 1018.9 |
| 20260506130523 | 51 | 0 | 0.0 | 3.0 | 0.00 | 0.00 | 0.00 | 94 | 1018.9 |
| 20260506130040 | 51 | 0 | 0.0 | 4.0 | 0.00 | 0.00 | 0.00 | 93 | 1018.8 |
| 20260506125522 | 51 | 123 | 0.0 | 4.0 | 0.00 | 0.00 | 0.00 | 93 | 1018.7 |
| 20260506125023 | 51 | 112 | 0.0 | 4.0 | 0.00 | 0.00 | 0.00 | 93 | 1018.8 |
| 20260506124538 | 51 | 0 | 0.0 | 0.0 | 0.00 | 0.00 | 0.00 | 93 | 1018.6 |
| 20260506124021 | 51 | 0 | 0.0 | 0.0 | 0.00 | 0.00 | 0.00 | 93 | 1018.7 |
| 20260506123522 | 51 | 0 | 0.0 | 0.0 | 0.00 | 0.00 | 0.00 | 94 | 1018.7 |
| 20260506123045 | 51 | 0 | 0.0 | 0.0 | 0.00 | 0.00 | 0.00 | 94 | 1018.6 |
| 20260506122523 | 51 | 0 | 0.0 | 0.0 | 0.00 | 0.00 | 0.00 | 94 | 1018.5 |
| 20260506122022 | 51 | 0 | 0.0 | 0.0 | 0.00 | 0.00 | 0.00 | 94 | 1018.5 |
| 20260506121545 | 51 | 0 | 0.0 | 2.0 | 0.00 | 0.00 | 0.00 | 93 | 1018.4 |
| 20260506121022 | 51 | 0 | 0.0 | 2.0 | 0.00 | 0.00 | 0.00 | 94 | 1018.4 |
| 20260506120522 | 51 | 0 | 0.0 | 3.0 | 0.00 | 0.00 | 0.00 | 93 | 1018.3 |
| 20260506120044 | 51 | 0 | 0.0 | 3.0 | 0.00 | 0.00 | 0.00 | 93 | 1018.3 |
| 20260506115522 | 51 | 109 | 1.0 | 3.0 | 0.00 | 0.00 | 0.00 | 93 | 1018.4 |
| 20260506115022 | 51 | 94 | 2.0 | 4.0 | 0.00 | 0.00 | 0.00 | 93 | 1018.3 |
| 20260506114538 | 51 | 136 | 1.0 | 4.0 | 0.00 | 0.00 | 0.00 | 93 | 1018.3 |
| 20260506114023 | 51 | 160 | 1.0 | 4.0 | 0.00 | 0.00 | 0.00 | 92 | 1018.3 |
| 20260506113522 | 51 | 130 | 1.0 | 4.0 | 0.00 | 0.00 | 0.00 | 92 | 1018.3 |
| 20260506113044 | 51 | 0 | 0.0 | 3.0 | 0.00 | 0.00 | 0.00 | 92 | 1018.3 |
| 20260506112521 | 52 | 194 | 0.0 | 3.0 | 0.00 | 0.00 | 0.00 | 91 | 1018.3 |
| 20260506112022 | 52 | 0 | 0.0 | 4.0 | 0.00 | 0.00 | 0.00 | 91 | 1018.3 |
| 20260506111541 | 52 | 0 | 1.0 | 4.0 | 0.00 | 0.00 | 0.00 | 91 | 1018.4 |
| 20260506111022 | 52 | 101 | 1.0 | 4.0 | 0.00 | 0.00 | 0.00 | 91 | 1018.3 |
| 20260506110522 | 52 | 96 | 1.0 | 4.0 | 0.00 | 0.00 | 0.00 | 91 | 1018.3 |
| 20260506110042 | 52 | 94 | 1.0 | 4.0 | 0.00 | 0.00 | 0.00 | 91 | 1018.1 |
| 20260506105522 | 52 | 105 | 0.0 | 2.0 | 0.00 | 0.00 | 0.00 | 91 | 1018.1 |
| 20260506105021 | 52 | 0 | 0.0 | 0.0 | 0.00 | 0.00 | 0.00 | 91 | 1018.0 |
| 20260506104559 | 52 | 0 | 0.0 | 0.0 | 0.00 | 0.00 | 0.00 | 91 | 1018.1 |
| 20260506104023 | 52 | 0 | 0.0 | 0.0 | 0.00 | 0.00 | 0.00 | 91 | 1018.0 |
| 20260506103522 | 52 | 0 | 0.0 | 0.0 | 0.00 | 0.00 | 0.00 | 91 | 1017.9 |
| 20260506103047 | 52 | 0 | 0.0 | 0.0 | 0.00 | 0.00 | 0.00 | 91 | 1017.8 |
| 20260506102522 | 52 | 0 | 0.0 | 2.0 | 0.00 | 0.00 | 0.00 | 91 | 1017.8 |
| 20260506102021 | 52 | 0 | 0.0 | 2.0 | 0.00 | 0.00 | 0.00 | 91 | 1017.6 |
| 20260506101539 | 52 | 0 | 1.0 | 2.0 | 0.00 | 0.00 | 0.00 | 91 | 1017.6 |
| 20260506101026 | 52 | 0 | 0.0 | 2.0 | 0.00 | 0.00 | 0.00 | 91 | 1017.5 |
| 20260506100524 | 52 | 0 | 0.0 | 2.0 | 0.00 | 0.00 | 0.00 | 91 | 1017.5 |
| 20260506100043 | 52 | 0 | 0.0 | 2.0 | 0.00 | 0.00 | 0.00 | 91 | 1017.4 |
| 20260506095521 | 52 | 0 | 0.0 | 0.0 | 0.00 | 0.00 | 0.00 | 92 | 1017.4 |
| 20260506095020 | 52 | 0 | 0.0 | 1.0 | 0.00 | 0.00 | 0.00 | 92 | 1017.4 |
| 20260506094540 | 52 | 0 | 0.0 | 1.0 | 0.00 | 0.00 | 0.00 | 92 | 1017.4 |
| 20260506094023 | 52 | 0 | 0.0 | 1.0 | 0.00 | 0.00 | 0.00 | 92 | 1017.4 |
| 20260506093523 | 52 | 0 | 0.0 | 2.0 | 0.00 | 0.00 | 0.00 | 92 | 1017.3 |
| 20260506093039 | 52 | 0 | 0.0 | 3.0 | 0.00 | 0.00 | 0.00 | 92 | 1017.3 |
| 20260506092523 | 52 | 0 | 0.0 | 6.0 | 0.00 | 0.00 | 0.00 | 91 | 1017.3 |
| 20260506092022 | 52 | 107 | 1.0 | 6.0 | 0.00 | 0.00 | 0.00 | 91 | 1017.2 |
| 20260506091539 | 52 | 105 | 1.0 | 4.0 | 0.00 | 0.00 | 0.00 | 92 | 1017.3 |
| 20260506091022 | 52 | 136 | 1.0 | 6.0 | 0.00 | 0.00 | 0.00 | 92 | 1017.2 |
| 20260506090522 | 52 | 142 | 2.0 | 6.0 | 0.00 | 0.00 | 0.00 | 92 | 1017.2 |
| 20260506090045 | 52 | 105 | 1.0 | 4.0 | 0.00 | 0.00 | 0.00 | 92 | 1017.2 |
| 20260506085522 | 52 | 113 | 2.0 | 4.0 | 0.00 | 0.00 | 0.00 | 92 | 1017.2 |
| 20260506085022 | 51 | 121 | 2.0 | 4.0 | 0.00 | 0.00 | 0.00 | 93 | 1017.3 |
| 20260506084558 | 51 | 115 | 1.0 | 4.0 | 0.00 | 0.00 | 0.00 | 93 | 1017.2 |
| 20260506084022 | 51 | 119 | 0.0 | 4.0 | 0.00 | 0.00 | 0.00 | 93 | 1017.1 |
| 20260506083523 | 51 | 116 | 1.0 | 3.0 | 0.00 | 0.00 | 0.00 | 93 | 1017.2 |
| 20260506083041 | 51 | 105 | 0.0 | 3.0 | 0.00 | 0.00 | 0.00 | 93 | 1017.2 |
| 20260506082520 | 51 | 121 | 1.0 | 3.0 | 0.00 | 0.00 | 0.00 | 94 | 1017.2 |
| 20260506082027 | 51 | 117 | 0.0 | 3.0 | 0.00 | 0.00 | 0.00 | 94 | 1017.2 |
| 20260506081541 | 51 | 110 | 0.0 | 6.0 | 0.00 | 0.00 | 0.00 | 94 | 1017.2 |
| 20260506081024 | 51 | 99 | 0.0 | 6.0 | 0.00 | 0.00 | 0.00 | 94 | 1017.2 |
| 20260506080523 | 51 | 105 | 1.0 | 3.0 | 0.00 | 0.00 | 0.00 | 94 | 1017.2 |
| 20260506073518 | 50 | 0 | 0.0 | 0.0 | 0.00 | 0.00 | 0.00 | 94 | 1017.2 |
| 20260506073035 | 50 | 0 | 0.0 | 0.0 | 0.00 | 0.00 | 0.00 | 94 | 1017.1 |
| 20260506072518 | 50 | 0 | 0.0 | 0.0 | 0.00 | 0.00 | 0.00 | 94 | 1017.1 |
| 20260506072018 | 50 | 0 | 0.0 | 2.0 | 0.00 | 0.00 | 0.00 | 94 | 1017.1 |
| 20260506071540 | 50 | 0 | 0.0 | 2.0 | 0.00 | 0.00 | 0.00 | 94 | 1017.1 |
| 20260506071022 | 50 | 112 | 0.0 | 2.0 | 0.00 | 0.00 | 0.00 | 95 | 1017.1 |
| 20260506070521 | 49 | 0 | 0.0 | 2.0 | 0.00 | 0.00 | 0.00 | 95 | 1017.1 |
| 20260506062020 | 50 | 0 | 0.0 | 0.0 | 0.00 | 0.00 | 0.00 | 94 | 1016.7 |
| 20260506061547 | 50 | 0 | 0.0 | 2.0 | 0.00 | 0.00 | 0.00 | 94 | 1016.5 |
| 20260506061019 | 50 | 0 | 0.0 | 2.0 | 0.00 | 0.00 | 0.00 | 94 | 1016.7 |
| 20260506060523 | 50 | 0 | 0.0 | 2.0 | 0.00 | 0.00 | 0.00 | 94 | 1016.6 |
| 20260506051020 | 50 | 0 | 0.0 | 1.0 | 0.00 | 0.00 | 0.00 | 94 | 1016.5 |
| 20260506050529 | 50 | 0 | 0.0 | 1.0 | 0.00 | 0.00 | 0.00 | 93 | 1016.6 |
| 20260506045018 | 50 | 0 | 0.0 | 0.0 | 0.00 | 0.00 | 0.00 | 93 | 1016.5 |
| 20260506044547 | 51 | 0 | 0.0 | 0.0 | 0.00 | 0.00 | 0.00 | 93 | 1016.4 |
| 20260506044018 | 51 | 0 | 0.0 | 0.0 | 0.00 | 0.00 | 0.00 | 93 | 1016.4 |
| 20260506043522 | 51 | 0 | 0.0 | 0.0 | 0.00 | 0.00 | 0.00 | 93 | 1016.4 |
| 20260506043042 | 51 | 0 | 0.0 | 0.0 | 0.00 | 0.00 | 0.00 | 93 | 1016.3 |
| 20260506042521 | 51 | 0 | 0.0 | 0.0 | 0.00 | 0.00 | 0.00 | 93 | 1016.3 |
| 20260506042020 | 51 | 0 | 0.0 | 0.0 | 0.00 | 0.00 | 0.00 | 92 | 1016.1 |
| 20260506041537 | 51 | 0 | 0.0 | 0.0 | 0.00 | 0.00 | 0.00 | 92 | 1016.2 |
| 20260506041020 | 51 | 0 | 0.0 | 0.0 | 0.00 | 0.00 | 0.00 | 92 | 1016.2 |
| 20260506040520 | 52 | 0 | 0.0 | 0.0 | 0.00 | 0.00 | 0.00 | 91 | 1016.2 |
| 20260506040035 | 52 | 0 | 0.0 | 0.0 | 0.00 | 0.00 | 0.00 | 91 | 1016.2 |
| 20260506035523 | 52 | 0 | 0.0 | 0.0 | 0.00 | 0.00 | 0.00 | 91 | 1016.2 |
| 20260506035024 | 52 | 0 | 0.0 | 0.0 | 0.00 | 0.00 | 0.00 | 91 | 1016.2 |
| 20260506034548 | 52 | 0 | 0.0 | 0.0 | 0.00 | 0.00 | 0.00 | 90 | 1016.0 |
| 20260506034020 | 53 | 0 | 0.0 | 0.0 | 0.00 | 0.00 | 0.00 | 90 | 1016.1 |
| 20260506033518 | 53 | 0 | 0.0 | 0.0 | 0.00 | 0.00 | 0.00 | 90 | 1015.9 |
| 20260506033046 | 53 | 0 | 0.0 | 0.0 | 0.00 | 0.00 | 0.00 | 90 | 1015.8 |
| 20260506032521 | 53 | 0 | 0.0 | 0.0 | 0.00 | 0.00 | 0.00 | 90 | 1015.8 |
| 20260506032021 | 53 | 0 | 0.0 | 0.0 | 0.00 | 0.00 | 0.00 | 89 | 1015.8 |
| 20260506031547 | 54 | 0 | 0.0 | 0.0 | 0.00 | 0.00 | 0.00 | 89 | 1015.8 |
| 20260506031021 | 54 | 0 | 0.0 | 0.0 | 0.00 | 0.00 | 0.00 | 89 | 1015.8 |
| 20260506030521 | 54 | 0 | 0.0 | 0.0 | 0.00 | 0.00 | 0.00 | 89 | 1015.7 |
| 20260506030050 | 54 | 0 | 0.0 | 0.0 | 0.00 | 0.00 | 0.00 | 88 | 1015.5 |
| 20260506025521 | 54 | 0 | 0.0 | 0.0 | 0.00 | 0.00 | 0.00 | 88 | 1015.5 |
| 20260506025020 | 54 | 0 | 0.0 | 0.0 | 0.00 | 0.00 | 0.00 | 88 | 1015.6 |
| 20260506024548 | 55 | 0 | 0.0 | 0.0 | 0.00 | 0.00 | 0.00 | 87 | 1015.5 |
| 20260506024021 | 55 | 0 | 0.0 | 0.0 | 0.00 | 0.00 | 0.00 | 87 | 1015.5 |
| 20260506023522 | 55 | 0 | 0.0 | 0.0 | 0.00 | 0.00 | 0.00 | 87 | 1015.4 |
| 20260506023042 | 55 | 0 | 0.0 | 0.0 | 0.00 | 0.00 | 0.00 | 86 | 1015.4 |
| 20260506022521 | 55 | 0 | 0.0 | 0.0 | 0.00 | 0.00 | 0.00 | 86 | 1015.4 |
| 20260506022022 | 56 | 0 | 0.0 | 0.0 | 0.00 | 0.00 | 0.00 | 85 | 1015.4 |
| 20260506021556 | 56 | 0 | 0.0 | 0.0 | 0.00 | 0.00 | 0.00 | 85 | 1015.4 |
| 20260506021021 | 56 | 0 | 0.0 | 0.0 | 0.00 | 0.00 | 0.00 | 85 | 1015.4 |
| 20260506020523 | 56 | 0 | 0.0 | 0.0 | 0.00 | 0.00 | 0.00 | 84 | 1015.5 |
| 20260506020039 | 56 | 0 | 0.0 | 0.0 | 0.00 | 0.00 | 0.00 | 84 | 1015.4 |
| 20260506015522 | 56 | 0 | 0.0 | 0.0 | 0.00 | 0.00 | 0.00 | 84 | 1015.4 |
| 20260506015022 | 57 | 0 | 0.0 | 0.0 | 0.00 | 0.00 | 0.00 | 83 | 1015.4 |
| 20260506014536 | 57 | 0 | 0.0 | 1.0 | 0.00 | 0.00 | 0.00 | 82 | 1015.4 |
| 20260506014023 | 58 | 0 | 0.0 | 2.0 | 0.00 | 0.00 | 0.00 | 81 | 1015.4 |
| 20260506013521 | 58 | 252 | 0.0 | 2.0 | 0.00 | 0.00 | 0.00 | 80 | 1015.4 |
| 20260506013035 | 58 | 247 | 1.0 | 2.0 | 0.00 | 0.00 | 0.00 | 80 | 1015.4 |
| 20260506012604 | 59 | 249 | 0.0 | 4.0 | 0.00 | 0.00 | 0.00 | 79 | 1015.3 |
| 20260506012021 | 59 | 0 | 0.0 | 4.0 | 0.00 | 0.00 | 0.00 | 79 | 1015.4 |
| 20260506011545 | 59 | 0 | 1.0 | 4.0 | 0.00 | 0.00 | 0.00 | 78 | 1015.4 |
| 20260506011023 | 59 | 0 | 1.0 | 3.0 | 0.00 | 0.00 | 0.00 | 78 | 1015.4 |
| 20260506010522 | 59 | 210 | 0.0 | 2.0 | 0.00 | 0.00 | 0.00 | 78 | 1015.5 |
| 20260506010040 | 59 | 0 | 0.0 | 4.0 | 0.00 | 0.00 | 0.00 | 77 | 1015.5 |
| 20260506005522 | 59 | 247 | 0.0 | 4.0 | 0.00 | 0.00 | 0.00 | 78 | 1015.5 |
| 20260506005021 | 60 | 241 | 0.0 | 2.0 | 0.00 | 0.00 | 0.00 | 78 | 1015.6 |
| 20260506004536 | 59 | 200 | 0.0 | 4.0 | 0.00 | 0.00 | 0.00 | 78 | 1015.5 |
| 20260506004023 | 59 | 0 | 0.0 | 4.0 | 0.00 | 0.00 | 0.00 | 78 | 1015.5 |
| 20260506003522 | 59 | 246 | 1.0 | 4.0 | 0.00 | 0.00 | 0.00 | 77 | 1015.5 |
| 20260506003038 | 59 | 0 | 0.0 | 2.0 | 0.00 | 0.00 | 0.00 | 79 | 1015.5 |
| 20260506002521 | 60 | 0 | 0.0 | 2.0 | 0.00 | 0.00 | 0.00 | 79 | 1015.6 |
| 20260506002022 | 59 | 0 | 0.0 | 2.0 | 0.00 | 0.00 | 0.00 | 78 | 1015.4 |
| 20260506001539 | 59 | 0 | 0.0 | 2.0 | 0.00 | 0.00 | 0.00 | 79 | 1015.6 |
| 20260506001022 | 59 | 0 | 0.0 | 3.0 | 0.00 | 0.00 | 0.00 | 79 | 1015.6 |
| 20260506000526 | 59 | 207 | 0.0 | 3.0 | 0.00 | 0.00 | 0.00 | 78 | 1015.6 |
| 20260506000048 | 59 | 0 | 0.0 | 3.0 | 0.00 | 0.00 | 0.00 | 78 | 1015.7 |
| 20260505235526 | 59 | 0 | 0.0 | 2.0 | 0.00 | 0.00 | 0.00 | 79 | 1015.8 |
| 20260505235022 | 59 | 0 | 0.0 | 1.0 | 0.00 | 0.00 | 0.00 | 79 | 1015.8 |
| 20260505234542 | 60 | 0 | 0.0 | 1.0 | 0.00 | 0.00 | 0.00 | 79 | 1015.8 |
| 20260505234025 | 59 | 0 | 0.0 | 1.0 | 0.00 | 0.00 | 0.00 | 79 | 1015.8 |
| 20260505233522 | 59 | 0 | 0.0 | 0.0 | 0.00 | 0.00 | 0.00 | 79 | 1015.8 |
| 20260505233037 | 59 | 0 | 0.0 | 2.0 | 0.00 | 0.00 | 0.00 | 78 | 1015.7 |
| 20260505232522 | 59 | 0 | 0.0 | 2.0 | 0.00 | 0.00 | 0.00 | 79 | 1015.7 |
| 20260505232024 | 59 | 0 | 0.0 | 2.0 | 0.00 | 0.00 | 0.00 | 78 | 1015.7 |
| 20260505231601 | 59 | 0 | 0.0 | 3.0 | 0.00 | 0.00 | 0.00 | 80 | 1015.8 |
| 20260505231022 | 59 | 0 | 0.0 | 3.0 | 0.00 | 0.00 | 0.00 | 78 | 1015.8 |
| 20260505230522 | 59 | 0 | 0.0 | 3.0 | 0.00 | 0.00 | 0.00 | 79 | 1015.9 |
| 20260505230043 | 59 | 194 | 1.0 | 3.0 | 0.00 | 0.00 | 0.00 | 79 | 1015.9 |
| 20260505225522 | 59 | 146 | 0.0 | 3.0 | 0.00 | 0.00 | 0.00 | 81 | 1016.0 |
| 20260505225022 | 58 | 0 | 0.0 | 5.0 | 0.00 | 0.00 | 0.00 | 80 | 1016.0 |
| 20260505224546 | 57 | 277 | 1.0 | 7.0 | 0.00 | 0.00 | 0.00 | 81 | 1016.1 |
| 20260505224023 | 57 | 157 | 2.0 | 7.0 | 0.00 | 0.00 | 0.00 | 80 | 1016.0 |
| 20260505223524 | 57 | 132 | 2.0 | 7.0 | 0.00 | 0.00 | 0.00 | 81 | 1016.1 |
| 20260505223040 | 57 | 116 | 2.0 | 7.0 | 0.00 | 0.00 | 0.00 | 82 | 1016.1 |
| 20260505222523 | 57 | 140 | 2.0 | 6.0 | 0.00 | 0.00 | 0.00 | 81 | 1016.2 |
| 20260505222023 | 57 | 0 | 2.0 | 4.0 | 0.00 | 0.00 | 0.00 | 81 | 1016.2 |
| 20260505221539 | 57 | 152 | 1.0 | 4.0 | 0.00 | 0.00 | 0.00 | 81 | 1016.2 |
| 20260505221023 | 58 | 100 | 0.0 | 4.0 | 0.00 | 0.00 | 0.00 | 80 | 1016.3 |
| 20260505220522 | 57 | 198 | 1.0 | 4.0 | 0.00 | 0.00 | 0.00 | 81 | 1016.4 |
| 20260505220043 | 57 | 93 | 1.0 | 3.0 | 0.00 | 0.00 | 0.00 | 81 | 1016.5 |
| 20260505215522 | 57 | 102 | 0.0 | 4.0 | 0.00 | 0.00 | 0.00 | 81 | 1016.5 |
| 20260505215022 | 57 | 230 | 1.0 | 6.0 | 0.00 | 0.00 | 0.00 | 82 | 1016.3 |
| 20260505214602 | 56 | 97 | 1.0 | 6.0 | 0.00 | 0.00 | 0.00 | 82 | 1016.3 |
| 20260505214022 | 56 | 103 | 2.0 | 6.0 | 0.00 | 0.00 | 0.00 | 82 | 1016.4 |
| 20260505213522 | 56 | 0 | 0.0 | 6.0 | 0.00 | 0.00 | 0.00 | 82 | 1016.4 |
| 20260505213040 | 56 | 164 | 1.0 | 8.0 | 0.00 | 0.00 | 0.00 | 82 | 1016.4 |
| 20260505212521 | 56 | 99 | 2.0 | 8.0 | 0.00 | 0.00 | 0.00 | 82 | 1016.4 |
| 20260505212027 | 56 | 129 | 2.0 | 8.0 | 0.00 | 0.00 | 0.00 | 81 | 1016.2 |
| 20260505211539 | 56 | 248 | 0.0 | 6.0 | 0.00 | 0.00 | 0.00 | 82 | 1016.2 |
| 20260505211022 | 56 | 105 | 2.0 | 6.0 | 0.00 | 0.00 | 0.00 | 82 | 1016.2 |
| 20260505210521 | 56 | 287 | 1.0 | 7.0 | 0.00 | 0.00 | 0.00 | 82 | 1016.2 |
| 20260505210039 | 56 | 152 | 2.0 | 7.0 | 0.00 | 0.00 | 0.00 | 82 | 1016.2 |
| 20260505205523 | 56 | 304 | 2.0 | 7.0 | 0.00 | 0.00 | 0.00 | 83 | 1016.4 |
| 20260505205023 | 56 | 0 | 1.0 | 8.0 | 0.00 | 0.00 | 0.00 | 83 | 1016.3 |
| 20260505204543 | 55 | 127 | 1.0 | 8.0 | 0.00 | 0.00 | 0.00 | 83 | 1016.4 |
| 20260505204022 | 55 | 274 | 1.0 | 8.0 | 0.00 | 0.00 | 0.00 | 84 | 1016.3 |
| 20260505203525 | 55 | 94 | 1.0 | 8.0 | 0.00 | 0.00 | 0.00 | 83 | 1016.3 |
| 20260505203034 | 55 | 114 | 2.0 | 8.0 | 0.00 | 0.00 | 0.00 | 83 | 1016.3 |
| 20260505202522 | 55 | 118 | 0.0 | 4.0 | 0.00 | 0.00 | 0.00 | 83 | 1016.3 |
| 20260505202022 | 55 | 188 | 0.0 | 6.0 | 0.00 | 0.00 | 0.00 | 83 | 1016.3 |
| 20260505201539 | 55 | 115 | 1.0 | 6.0 | 0.00 | 0.00 | 0.00 | 83 | 1016.3 |
| 20260505201025 | 55 | 101 | 2.0 | 6.0 | 0.00 | 0.00 | 0.00 | 84 | 1016.3 |
| 20260505200523 | 55 | 112 | 1.0 | 4.0 | 0.00 | 0.00 | 0.00 | 83 | 1016.3 |
| 20260505200045 | 55 | 0 | 0.0 | 3.0 | 0.00 | 0.00 | 0.00 | 83 | 1016.3 |
| 20260505195522 | 55 | 0 | 0.0 | 6.0 | 0.00 | 0.00 | 0.00 | 84 | 1016.4 |
| 20260505195022 | 55 | 0 | 0.0 | 7.0 | 0.00 | 0.00 | 0.00 | 84 | 1016.4 |
| 20260505194535 | 55 | 112 | 2.0 | 7.0 | 0.00 | 0.00 | 0.00 | 84 | 1016.3 |
| 20260505194023 | 55 | 104 | 1.0 | 8.0 | 0.00 | 0.00 | 0.00 | 84 | 1016.3 |
| 20260505193521 | 54 | 106 | 1.0 | 8.0 | 0.00 | 0.00 | 0.00 | 85 | 1016.3 |
| 20260505193042 | 54 | 120 | 2.0 | 8.0 | 0.00 | 0.00 | 0.00 | 84 | 1016.3 |
| 20260505192522 | 54 | 144 | 3.0 | 8.0 | 0.00 | 0.00 | 0.00 | 85 | 1016.2 |
| 20260505192022 | 54 | 157 | 0.0 | 7.0 | 0.00 | 0.00 | 0.00 | 86 | 1016.3 |
| 20260505191545 | 54 | 98 | 1.0 | 7.0 | 0.00 | 0.00 | 0.00 | 86 | 1016.2 |
| 20260505191022 | 54 | 126 | 2.0 | 7.0 | 0.00 | 0.00 | 0.00 | 86 | 1016.3 |
| 20260505190519 | 54 | 84 | 3.0 | 7.0 | 0.00 | 0.00 | 0.00 | 86 | 1016.4 |
| 20260505190040 | 54 | 103 | 0.0 | 4.0 | 0.00 | 0.00 | 0.00 | 86 | 1016.3 |
| 20260505185519 | 53 | 132 | 0.0 | 4.0 | 0.00 | 0.00 | 0.00 | 86 | 1016.3 |
| 20260505185022 | 53 | 98 | 1.0 | 6.0 | 0.00 | 0.00 | 0.00 | 87 | 1016.3 |
| 20260505184538 | 54 | 107 | 1.0 | 6.0 | 0.00 | 0.00 | 0.00 | 86 | 1016.2 |
| 20260505184019 | 53 | 109 | 1.0 | 6.0 | 0.00 | 0.00 | 0.00 | 86 | 1016.3 |
| 20260505183520 | 53 | 0 | 0.0 | 4.0 | 0.00 | 0.00 | 0.00 | 87 | 1016.2 |
| 20260505183051 | 53 | 0 | 1.0 | 5.0 | 0.00 | 0.00 | 0.00 | 87 | 1016.3 |
| 20260505182519 | 53 | 94 | 0.0 | 5.0 | 0.00 | 0.00 | 0.00 | 87 | 1016.2 |
| 20260505182018 | 54 | 242 | 1.0 | 5.0 | 0.00 | 0.00 | 0.00 | 86 | 1016.2 |
| 20260505181535 | 53 | 0 | 0.0 | 5.0 | 0.00 | 0.00 | 0.00 | 87 | 1016.1 |
| 20260505181020 | 53 | 0 | 1.0 | 5.0 | 0.00 | 0.00 | 0.00 | 87 | 1016.2 |
| 20260505180519 | 53 | 106 | 1.0 | 7.0 | 0.00 | 0.00 | 0.00 | 87 | 1016.2 |
| 20260505180048 | 53 | 105 | 0.0 | 7.0 | 0.00 | 0.00 | 0.00 | 87 | 1016.2 |